C/2015 T2 ( PanSTARRS )

Japanese version
Home page
Updated on March 25, 2017

---------------------------------------------------------------------

* Profile

Discovery Date October 9, 2015
Magnitude 21.8 mag
Discoverer Pan-STARRS 1 telescope (Haleakala)

* Pictures

* Orbital Elements

Epoch 2017 May 7.0 TT = JDT 2457880.5
T 2017 May 20.42864 TT                                  MPCW
q   6.9354182            (2000.0)            P               Q
z  -0.0000471      Peri.   30.76068     +0.76567034     +0.05757880
 +/-0.0000009      Node    51.06045     +0.27841183     -0.92752144
e   1.0003265      Incl.  124.54708     +0.57985842     +0.36930836
From 141 observations 2015 Oct. 9-2017 Jan. 24, mean residual 0".4.

* Magnitudes Graph

        m1 = 7.0 + 5 log d + 10.0 log r

---------------------------------------------------------------------

The orbital elements are published on M.P.E.C. 2017-E59.
The magnitudes graphs are made with Comet for Windows.

---------------------------------------------------------------------

Copyright(C) Seiichi Yoshida (comet@aerith.net). All rights reserved.